Volver al catálogo

CZ-6A DEB

ActivoSSO
NORAD 54899·DEBRIS·🇨🇳 China

Lanzado Nov 11, 2022 desde Taiyuan Satellite Launch Center

Loading…

Próximos Pases (próximas 24 horas)

TLE

ActualizadoSource: Space-Track

Época: Sep 12, 2026, 23:52 UTC

1 54899U 22151QL  26255.99466316  .00001923  00000-0  78031-3 0  9997
2 54899  98.7715 276.3500 0026516  58.8744 301.5033 14.28637129196221

Sigue CZ-6A DEB en tiempo real con AllMySat

Download on the App Store